sat.trackr.live / text

‹ back to catalog

STARLINK-2399

NORAD 47816 · 2021-018AF

PAYLOAD ACTIVE UNKNOWN

§ Identity

Operator
Country
US
Launch date
2021-03-11
Launch site
AFETR
Launch vehicle
Mass (kg)
RCS (m²)

Purposes: comms

External: N2YO · Heavens-Above · Gunter

§ Orbital elements

Epoch: 2026-05-25T06:00:02.000160Z

Period
94.01 min
Inclination
53.1587°
Eccentricity
0.0001199
Mean motion
15.31680137 rev/d
Perigee alt
470.0 km
Apogee alt
471.6 km
Semi-major
6,848.9 km
B*
1.7083e-3
RAAN
262.0972°
Arg perigee
105.5622°
Mean anomaly
1.4620°
Rev number
576

§ Raw data

STARLINK-23991 47816U 21018AF  26145.25002315  .00052988  00000+0  17083-2 0  99962 47816  53.1587 262.0972 0001199 105.5622   1.4620 15.31680137  5762

JSON: /api/v1/satellites/47816 · /tle

For live sub-satellite position, see the globe view (requires WebGL).

§ Visibility from observer

Set your observer location to see the next 7 days of passes ≥ 10°. The values pass through the URL so the page stays shareable.

No JS? Fill the form by hand. The geolocation button needs JavaScript.